www.pogodaiklimat.ru

Погода и климат >> Архив погоды >> Россия >> Крым >> Феодосия


АРХИВ ПОГОДЫ в Феодосии

Время (UTC), дата Ветер
(напр.,м/с)
 
Видим.   Явления Облачность Т
(С)
Тd
(С)
f
(%)
Тe
(С)
Тes
(С)
Комфортность P
(гПа)
Po
(гПа)
Тmin
(С)
Tmax
(С)
R
(мм)
R24
(мм)
S
(см)
06 13.11 В 1 10 км 9 баллов +12.8 +10.5 86 +13 +13 тепло 1017.8 1014.7 +10.3
09 13.11 Ю 4 10 км 9 баллов +15.8 +11.0 73 +15 +15 тепло 1016.4 1013.3
12 13.11 В 3
{10}
10 км 7 баллов +16.0 +13.1 83 +16 +16 тепло 1016.4 1013.3
15 13.11 В 2 10 км 10 баллов +13.8 +12.9 94 +13 +13 тепло 1016.4 1013.3
18 13.11 ЮВ 2 4000 м дымка 7 баллов +14.0 +13.2 95 +13 +13 тепло 1015.1 1012.0 +16.9
21 13.11 Ю 3 10 км 10 баллов +14.4 +13.3 93 +13 +13 тепло 1015.1 1012.0
00 14.11 ЮВ 4 10 км 10 баллов +14.4 +12.8 90 +13 +13 тепло 1013.8 1010.7
03 14.11 ЮВ 4 10 км 6 баллов +14.6 +12.3 86 +13 +13 тепло 1013.8 1010.7 +13.8
06 14.11 ЮВ 4 10 км 7 баллов +15.2 +12.9 86 +14 +14 тепло 1013.8 1010.7 +14.0
09 14.11 В 2 20 км 7 баллов +16.4 +12.9 80 +17 +18 тепло 1013.8 1010.7
12 14.11 ЮВ 1 20 км 5 баллов +18.4 +12.4 68 +20 +21 тепло 1013.8 1010.7
15 14.11 СЗ 2 10 км 2 балла +13.7 +11.9 89 +13 +13 тепло 1015.1 1012.0
18 14.11 СЗ 3 10 км ясно +14.3 +11.3 82 +13 +13 тепло 1016.4 1013.3 +19.0
21 14.11 З 4
{10}
10 км ясно +12.8 +10.9 88 +11 +11 тепло 1017.8 1014.7
00 15.11 СЗ 4
{10}
4000 м дымка 10 баллов +10.2 +9.0 92 +7 +7 тепло 1020.5 1017.3
03 15.11 СЗ 3 4000 м дымка 10 баллов +10.1 +8.9 92 +8 +8 тепло 1021.9 1018.7 +10.1 0.0
06 15.11 СЗ 3 4000 м дымка 10 баллов +9.1 +8.3 95 +6 +6 по сезону 1023.2 1020.0 +9.1 0.0
09 15.11 СЗ 3 2000 м дымка 10 баллов +9.1 +8.3 95 +6 +6 по сезону 1024.5 1021.3
12 15.11 СЗ 3 4000 м дымка 10 баллов +9.1 +8.0 93 +7 +7 по сезону 1024.5 1021.3
15 15.11 СЗ 3 10 км 10 баллов +8.2 +6.3 88 +5 +5 по сезону 1025.9 1022.7
18 15.11 СЗ 3 10 км 10 баллов +8.1 +6.1 87 +5 +5 по сезону 1027.2 1024.0 +9.5
21 15.11 СЗ 2 10 км 9 баллов +7.8 +5.8 87 +6 +6 по сезону 1028.5 1025.3
00 16.11 СЗ 2 10 км 7 баллов +7.6 +4.9 83 +6 +6 по сезону 1028.5 1025.3
03 16.11 С 1 10 км 10 баллов +7.5 +3.7 77 +7 +7 тепло 1028.5 1025.3 +7.5
06 16.11 С 2 10 км 9 баллов +7.9 +3.7 75 +6 +6 по сезону 1029.9 1026.7 +7.5
09 16.11 С 2 10 км 9 баллов +9.1 +3.3 67 +8 +8 тепло 1029.9 1026.7
12 16.11 С 3 10 км 6 баллов +10.1 +3.6 64 +8 +9 по сезону 1028.5 1025.3
15 16.11 С 3 10 км ясно +6.8 +3.9 82 +4 +4 по сезону 1028.5 1025.3
18 16.11 С 2 10 км 7 баллов +6.4 +3.6 82 +4 +4 по сезону 1027.2 1024.0 +11.2
21 16.11 СЗ 2 10 км 10 баллов +6.8 +3.9 82 +5 +5 по сезону 1027.2 1024.0
00 17.11 СВ 1 10 км 10 баллов +7.2 +4.8 85 +6 +6 по сезону 1027.2 1024.0
03 17.11 С 2 10 км 10 баллов +7.0 +4.7 85 +5 +5 по сезону 1027.2 1024.0 +6.4
06 17.11 В 3 10 км 10 баллов +7.5 +6.1 91 +5 +5 по сезону 1027.2 1024.0 +6.4
09 17.11 В 1 10 км 10 баллов +8.7 +6.3 85 +8 +8 тепло 1025.9 1022.7
12 17.11 В 2 10 км 7 баллов +10.3 +4.0 65 +9 +10 тепло 1024.5 1021.3
15 17.11 СВ 3 10 км 6 баллов +8.9 +0.6 56 +7 +7 по сезону 1024.5 1021.3
18 17.11 З 2 10 км 5 баллов +5.9 +1.0 71 +4 +4 по сезону 1023.2 1020.0 +10.7
21 17.11 З 2 10 км ясно +4.8 +2.8 87 +2 +2 по сезону 1022.0 1018.7
00 18.11 З 2 10 км ясно +4.2 +2.2 87 +1 +1 по сезону 1022.0 1018.7
03 18.11 З 2 4000 м дымка 10 баллов +4.8 +4.1 95 +2 +2 по сезону 1020.5 1017.3 +4.2
06 18.11 СЗ 2 1000 м дымка 10 баллов +5.9 +5.0 94 +3 +3 по сезону 1020.5 1017.3 +4.2
09 18.11 СЗ 1 1000 м дымка 10 баллов +6.4 +5.4 93 +5 +5 по сезону 1020.5 1017.3
12 18.11 ЮВ 1 1000 м дымка 10 баллов +7.9 +6.4 90 +7 +7 по сезону 1017.9 1014.7
15 18.11 Ю 1 4000 м дымка 10 баллов +8.5 +7.0 90 +8 +8 тепло 1017.9 1014.7
18 18.11 ЮЗ 1 10 км 10 баллов +9.1 +7.5 90 +8 +8 тепло 1016.5 1013.3 +9.1
21 18.11 штиль 0 10 км 10 баллов +10.1 +8.4 89 +9 +9 тепло 1016.5 1013.3
00 19.11 СЗ 3 10 км 4 балла +8.3 +6.8 90 +6 +6 по сезону 1015.2 1012.0
03 19.11 штиль 0 10 км 6 баллов +5.7 +4.5 92 +5 +5 по сезону 1013.9 1010.7 +5.7
06 19.11 З 1 2000 м дымка 7 баллов +5.2 +4.0 92 +4 +4 по сезону 1013.9 1010.7 +5.2
09 19.11 В 1 4000 м дымка 7 баллов +9.5 +7.9 90 +9 +10 тепло 1012.5 1009.3
12 19.11 В 1 10 км 9 баллов +11.9 +9.3 84 +12 +12 тепло 1011.1 1008.0
15 19.11 СЗ 2 10 км 7 баллов +10.5 +8.3 86 +9 +9 тепло 1009.8 1006.7
18 19.11 СЗ 1 4000 м дымка 7 баллов +8.4 +7.3 93 +8 +8 тепло 1011.2 1008.0 +12.1
21 19.11 С 1 10 км 5 баллов +7.6 +6.2 91 +7 +7 тепло 1009.9 1006.7
00 20.11 С 1 10 км 7 баллов +7.4 +6.0 91 +6 +6 тепло 1009.9 1006.7

 

Местоположение метеостанции Феодосия (Крым, Россия): широта 45.03 долгота 35.38 высота над уровнем моря 26 м.

В архиве по умолчанию представлена погода в Феодосии за последнюю неделю. Архивные данные за месяц целиком и за предыдущие месяцы, начиная с января 2011 года, Вы можете получить, выбрав интересующий диапазон дат из раскрывающегося списка и нажав кнопку "Ввод!".

Внимание! Время в таблицах - всемирное. Для получения местного времени необходимо прибавить поправку, которая в Феодосии равна 3 ч.

Смотрите также архив погоды в соседних городах и на ближайших метеорологических станциях:

Погода на Мысовом (Крым, Россия) (58 км)
Погода в Белогорске (Крым, Россия) (61 км)
Погода в Нижнегорском (Крым, Россия) (69 км)
Погода в Стрелковом (Херсонская область, Украина) (87 км)
Погода в Алуште (Крым, Россия) (87 км)
Погода в Керчи (Крым, Россия) (91 км)
Погода в Никитском саду (Крым, Россия) (106 км)
Погода в Тамани (Краснодарский край, Россия) (107 км)
Погода в Джанкое (Крым, Россия) (108 км)
Погода в Клепинино (Крым, Россия) (109 км)

Пояснения к столбцам:

Ветер - указаны скорость ветра в м/с - средняя за 10 мин, порывы в срок и между сроками (в фигурных скобках) и направление, откуда дует ветер: С - северный, СВ - северо-восточный, В - восточный, ЮВ - юго-восточный, Ю - южный, ЮЗ - юго-западный, З - западный, СЗ - северо-западный.
Видимость - горизонтальная дальность видимости в метрах или километрах. При видимости от 1 до 10 км при отсутствии осадков обычно наблюдается дымка, при ухудшении видимости до 1 км и менее - туман. В сухую погоду видимость может ухудшаться дымом, пылью или мглою.
Явления - указаны атмосферные явления, наблюдавшиеся в срок или в последний час перед сроком; фигурными скобками обозначены явления, наблюдавшиеся между сроками (за 1-3 часа до срока); квадратными скобками обозначены град или гололедные отложения с указанием их диаметра в мм.
Облачность - указаны через наклонную черту общая и нижняя облачность в баллах и высота нижней границы облаков в метрах; квадратными скобками обозначены формы облаков: Ci - перистые, Cs - перисто-слоистые, Cc - перисто-кучевые, Ac - высококучевые, As - высокослоистые, Sc - слоисто-кучевые, Ns - слоисто-дождевые, Cu - кучевые, Cb - кучево-дождевые. Подробнее классификацию облаков см. в Атласе облаков (PDF).
T - Температура воздуха - температура, измеренная на высоте 2 м над землей.
Td - Температура точки росы - температура, при понижении до которой содержащийся в воздухе водяной пар достигнет насыщения.
f - Относительная влажность воздуха - влажноcть воздуха, измеренная на высоте 2 м над землей.
Te - Эффективная температура - температура, которую ощущает одетый по сезону человек в тени. Характеристика душности погоды. При расчете учитывается влияние влажности воздуха и скорости ветра на теплоощущения человека.
Tes - Эффективная температура на солнце - температура, которую ощущает человек, с поправкой на солнечный нагрев. Характеристика знойности погоды. Зависит от высоты солнца над горизонтом, облачности и скорости ветра. Ночью, в пасмурную погоду, а также при ветре 12 м/с и более поправка равна нулю.
P - Атмосферное давление - приведенное к уровню моря атмосферное давление.
Po - Атмосферное давление - измеренное на уровне метеостанции атмосферное давление.
Tmin - Минимальная температура - минимум температуры воздуха на высоте 2 м над землей.
Tmax - Максимальная температура - максимум температуры воздуха на высоте 2 м над землей.
R - Количество осадков - Количество выпавших осадков за период времени, мм. При наведении курсора мыши на число - период времени, за который выпало указанное количество осадков.
R24 - Количество осадков - Количество выпавших осадков за 24 часа, мм.
S - Снежный покров - Высота снежного покрова, см. При наведении курсора мыши на число - состояние снежного покрова и степень покрытия местности в баллах.